Location: Davayat
(45.9471°N, 3.1105°E)
Time: 18:29:54
(UTC+00:00)

USA 215 - Pass Details

Date: 01 December 2020
Orbit: 1098 x 1110 km, 123.0° (Epoch: 22 January)

Event Time Altitude Azimuth Distance (km) Brightness Sun altitude
Exits shadow 18:46:50 63° 66° (ENE) 1,225 3.1 -27.6°
Maximum altitude 18:48:00 83° 141° (SE) 1,122 3.1 -27.8°
Drops below altitude 10° 18:54:35 10° 230° (SW) 2,968 6.1 -28.9°
Sets 18:57:04 0° 231° (SW) 3,924 6.9 -29.3°
